TAM3537 SBMO-SBGR

Flight info

Callsign TAM3537
Flight time N/A
Altitude 34000
Route OBLAX UZ21 VUNOX
Aircraft A319/M-SDE3FGHIRWY/LB1

Departure

Time 2026-04-24 12:27
Airport Zumbi dos Palmares International Airport (SBMO)

Arrival

Time N/A
Airport São Paulo/Guarulhos–Governor André Franco Montoro International Airport (SBGR)
Time Latitude Longitude Altitude Speed Heading
2026-04-24 12:14 -9.51393 -35.79247 401 ft 0 kts 191°
2026-04-24 12:17 -9.51391 -35.79247 401 ft 2 kts 191°
2026-04-24 12:17 -9.51365 -35.79241 397 ft 4 kts 199°
2026-04-24 12:18 -9.51342 -35.79229 397 ft 4 kts 226°
2026-04-24 12:18 -9.51333 -35.79211 399 ft 1 kts 280°
2026-04-24 12:18 -9.51333 -35.79210 399 ft 0 kts 280°
2026-04-24 12:19 -9.51332 -35.79215 399 ft 1 kts 280°
2026-04-24 12:20 -9.51330 -35.79226 401 ft 2 kts 280°
2026-04-24 12:20 -9.51327 -35.79244 399 ft 3 kts 280°
2026-04-24 12:20 -9.51323 -35.79268 401 ft 4 kts 280°
2026-04-24 12:20 -9.51317 -35.79298 401 ft 5 kts 280°
2026-04-24 12:21 -9.51311 -35.79333 401 ft 5 kts 280°
2026-04-24 12:21 -9.51304 -35.79372 401 ft 6 kts 280°
2026-04-24 12:21 -9.51286 -35.79410 398 ft 6 kts 318°
2026-04-24 12:21 -9.51246 -35.79429 401 ft 7 kts 336°
2026-04-24 12:22 -9.51204 -35.79450 398 ft 7 kts 322°
2026-04-24 12:22 -9.51185 -35.79497 401 ft 8 kts 278°
2026-04-24 12:22 -9.51177 -35.79551 401 ft 8 kts 278°
2026-04-24 12:22 -9.51168 -35.79608 401 ft 8 kts 279°
2026-04-24 12:23 -9.51158 -35.79667 401 ft 9 kts 279°
2026-04-24 12:23 -9.51145 -35.79727 399 ft 9 kts 282°
2026-04-24 12:23 -9.51132 -35.79789 401 ft 9 kts 282°
2026-04-24 12:23 -9.51117 -35.79854 399 ft 10 kts 282°
2026-04-24 12:24 -9.51103 -35.79921 401 ft 10 kts 282°
2026-04-24 12:24 -9.51094 -35.79990 401 ft 10 kts 277°
2026-04-24 12:24 -9.51083 -35.80062 401 ft 11 kts 279°
2026-04-24 12:24 -9.51069 -35.80136 401 ft 11 kts 282°
2026-04-24 12:25 -9.51053 -35.80210 401 ft 11 kts 281°
2026-04-24 12:25 -9.51041 -35.80278 401 ft 9 kts 281°
2026-04-24 12:25 -9.51019 -35.80335 401 ft 9 kts 315°
2026-04-24 12:25 -9.50961 -35.80338 401 ft 9 kts 10°
2026-04-24 12:26 -9.50900 -35.80327 401 ft 9 kts 10°
2026-04-24 12:26 -9.50873 -35.80302 399 ft 5 kts 97°
2026-04-24 12:26 -9.50898 -35.80160 402 ft 57 kts 100°
2026-04-24 12:26 -9.51029 -35.79469 400 ft 139 kts 101°
2026-04-24 12:27 -9.51238 -35.78419 944 ft 153 kts 103°
2026-04-24 12:27 -9.51464 -35.77366 1652 ft 153 kts 105°
2026-04-24 12:27 -9.51733 -35.76315 2420 ft 156 kts 108°
2026-04-24 12:27 -9.52155 -35.75310 3023 ft 162 kts 131°
2026-04-24 12:28 -9.53235 -35.74863 3239 ft 191 kts 181°
2026-04-24 12:28 -9.54497 -35.75490 3473 ft 224 kts 224°
2026-04-24 12:28 -9.55179 -35.77000 3810 ft 251 kts 253°
2026-04-24 12:28 -9.55574 -35.78751 4529 ft 257 kts 256°
2026-04-24 12:29 -9.55929 -35.80569 5128 ft 273 kts 257°
2026-04-24 12:29 -9.56302 -35.82500 5858 ft 283 kts 256°
2026-04-24 12:29 -9.56696 -35.84472 6699 ft 287 kts 256°
2026-04-24 12:29 -9.56969 -35.85789 7232 ft 290 kts 256°
2026-04-24 12:30 -9.57398 -35.87797 8079 ft 293 kts 255°
2026-04-24 12:30 -9.57844 -35.89831 8902 ft 297 kts 255°
2026-04-24 12:30 -9.58302 -35.91884 9744 ft 301 kts 255°
2026-04-24 12:30 -9.58772 -35.93974 10347 ft 312 kts 255°
2026-04-24 12:31 -9.59275 -35.96199 10612 ft 334 kts 255°
2026-04-24 12:31 -9.59799 -35.98535 11145 ft 344 kts 255°
2026-04-24 12:31 -9.60331 -36.00924 11790 ft 350 kts 256°
2026-04-24 12:31 -9.60870 -36.03352 12458 ft 355 kts 256°
2026-04-24 12:32 -9.61415 -36.05808 13125 ft 360 kts 256°
2026-04-24 12:32 -9.61967 -36.08299 13769 ft 364 kts 257°
2026-04-24 12:32 -9.62526 -36.10817 14340 ft 368 kts 257°
2026-04-24 12:32 -9.63093 -36.13358 14925 ft 371 kts 257°
2026-04-24 12:33 -9.63664 -36.15919 15515 ft 374 kts 257°
2026-04-24 12:33 -9.64328 -36.18473 16100 ft 377 kts 249°
2026-04-24 12:33 -9.65408 -36.20894 16654 ft 379 kts 242°
2026-04-24 12:33 -9.66587 -36.23297 17228 ft 382 kts 243°
2026-04-24 12:34 -9.67771 -36.25721 17822 ft 385 kts 243°
2026-04-24 12:34 -9.68959 -36.28163 18367 ft 388 kts 243°
2026-04-24 12:34 -9.70156 -36.30634 18832 ft 392 kts 243°
2026-04-24 12:34 -9.71359 -36.33120 19318 ft 394 kts 243°
2026-04-24 12:35 -9.72555 -36.35595 19798 ft 397 kts 243°
2026-04-24 12:35 -9.73777 -36.38121 20274 ft 400 kts 243°
2026-04-24 12:35 -9.75008 -36.40659 20741 ft 403 kts 243°
2026-04-24 12:35 -9.76251 -36.43221 21206 ft 406 kts 242°
2026-04-24 12:36 -9.77505 -36.45801 21655 ft 410 kts 242°
2026-04-24 12:36 -9.78771 -36.48404 22117 ft 413 kts 242°
2026-04-24 12:36 -9.80044 -36.51027 22567 ft 416 kts 242°
2026-04-24 12:36 -9.81326 -36.53675 23010 ft 419 kts 242°
2026-04-24 12:37 -9.82612 -36.56336 23447 ft 423 kts 242°
2026-04-24 12:37 -9.83911 -36.59026 23821 ft 426 kts 242°
2026-04-24 12:37 -9.85219 -36.61733 24194 ft 429 kts 242°
2026-04-24 12:37 -9.86538 -36.64459 24560 ft 430 kts 242°
2026-04-24 12:38 -9.87856 -36.67184 24938 ft 432 kts 242°
2026-04-24 12:38 -9.89168 -36.69895 25305 ft 434 kts 242°
2026-04-24 12:38 -9.90584 -36.72600 25672 ft 434 kts 236°
2026-04-24 12:39 -9.97085 -36.78881 26733 ft 435 kts 213°
2026-04-24 12:39 -9.99565 -36.80642 27075 ft 437 kts 213°
2026-04-24 12:39 -10.02058 -36.82418 27399 ft 439 kts 213°
2026-04-24 12:40 -10.04596 -36.84230 27730 ft 441 kts 213°
2026-04-24 12:40 -10.07077 -36.86009 28061 ft 443 kts 213°
2026-04-24 12:40 -10.09631 -36.87842 28397 ft 445 kts 213°
2026-04-24 12:40 -10.12137 -36.89635 28727 ft 447 kts 213°
2026-04-24 12:41 -10.14682 -36.91457 29050 ft 449 kts 214°
2026-04-24 12:41 -10.17246 -36.93294 29378 ft 451 kts 214°
2026-04-24 12:41 -10.19814 -36.95137 29697 ft 453 kts 214°
2026-04-24 12:41 -10.22394 -36.96988 30010 ft 455 kts 214°
2026-04-24 12:42 -10.24986 -36.98846 30277 ft 457 kts 214°
2026-04-24 12:42 -10.27587 -37.00712 30549 ft 459 kts 214°
2026-04-24 12:42 -10.30200 -37.02585 30803 ft 461 kts 213°
2026-04-24 12:42 -10.32818 -37.04463 31065 ft 462 kts 213°
2026-04-24 12:43 -10.35456 -37.06355 31338 ft 464 kts 214°
2026-04-24 12:43 -10.38096 -37.08251 31599 ft 465 kts 214°
2026-04-24 12:43 -10.40742 -37.10148 31930 ft 465 kts 213°
2026-04-24 12:43 -10.43381 -37.12037 32326 ft 463 kts 214°
2026-04-24 12:44 -10.46015 -37.13926 32720 ft 462 kts 213°
2026-04-24 12:44 -10.48630 -37.15803 33110 ft 461 kts 214°
2026-04-24 12:44 -10.51243 -37.17681 33509 ft 459 kts 214°
2026-04-24 12:44 -10.53819 -37.19532 33898 ft 458 kts 213°
2026-04-24 12:45 -10.56417 -37.21400 34007 ft 455 kts 213°
2026-04-24 12:45 -10.58962 -37.23230 34025 ft 443 kts 213°
2026-04-24 12:45 -10.61460 -37.25026 34029 ft 437 kts 213°
2026-04-24 12:46 -10.66407 -37.28581 34030 ft 434 kts 213°
2026-04-24 12:46 -10.71345 -37.32129 34026 ft 434 kts 214°
2026-04-24 12:47 -10.76271 -37.35676 34032 ft 434 kts 214°
2026-04-24 12:47 -10.81171 -37.39200 34027 ft 433 kts 213°
2026-04-24 12:48 -10.86093 -37.42742 34028 ft 433 kts 213°
2026-04-24 12:48 -10.91000 -37.46278 34025 ft 432 kts 214°
2026-04-24 12:49 -10.95902 -37.49814 34018 ft 432 kts 214°
2026-04-24 12:49 -11.00799 -37.53348 34025 ft 431 kts 213°
2026-04-24 12:50 -11.05698 -37.56882 34017 ft 431 kts 214°
2026-04-24 12:50 -11.10592 -37.60410 34013 ft 431 kts 213°
2026-04-24 12:51 -11.15489 -37.63940 34017 ft 432 kts 213°
2026-04-24 12:51 -11.20395 -37.67483 34016 ft 432 kts 213°
2026-04-24 12:52 -11.25297 -37.71021 34015 ft 432 kts 213°
2026-04-24 12:52 -11.30170 -37.74538 34018 ft 432 kts 213°
2026-04-24 12:53 -11.35151 -37.78137 34236 ft 444 kts 213°
2026-04-24 12:53 -11.37683 -37.79969 34470 ft 446 kts 213°
2026-04-24 12:53 -11.40212 -37.81800 34788 ft 446 kts 213°
2026-04-24 12:53 -11.42733 -37.83629 35120 ft 445 kts 213°
2026-04-24 12:54 -11.45254 -37.85457 35451 ft 444 kts 213°
2026-04-24 12:54 -11.47763 -37.87276 35782 ft 442 kts 213°
2026-04-24 12:54 -11.50269 -37.89095 36004 ft 442 kts 213°
2026-04-24 12:55 -11.55265 -37.92733 36045 ft 440 kts 213°
2026-04-24 12:55 -11.60243 -37.96369 36042 ft 440 kts 213°
2026-04-24 12:56 -11.65230 -38.00005 36050 ft 441 kts 213°
2026-04-24 12:56 -11.70228 -38.03641 36053 ft 441 kts 213°
2026-04-24 12:57 -11.75230 -38.07279 36048 ft 441 kts 213°
2026-04-24 12:57 -11.80217 -38.10917 36045 ft 440 kts 213°
2026-04-24 12:58 -11.85202 -38.14567 36049 ft 440 kts 213°
2026-04-24 12:58 -11.90185 -38.18210 36049 ft 441 kts 213°
2026-04-24 12:59 -11.95141 -38.21830 36048 ft 440 kts 213°
2026-04-24 12:59 -12.00125 -38.25474 36043 ft 440 kts 213°
2026-04-24 13:00 -12.05113 -38.29117 36052 ft 441 kts 213°
2026-04-24 13:00 -12.10091 -38.32761 36050 ft 440 kts 213°
2026-04-24 13:01 -12.15077 -38.36414 36054 ft 440 kts 213°
2026-04-24 13:01 -12.20055 -38.40065 36057 ft 440 kts 213°
2026-04-24 13:02 -12.25029 -38.43704 36053 ft 440 kts 213°
2026-04-24 13:02 -12.30016 -38.47353 36053 ft 440 kts 213°
2026-04-24 13:03 -12.34999 -38.51006 36058 ft 441 kts 213°
2026-04-24 13:03 -12.39979 -38.54667 36053 ft 441 kts 213°
2026-04-24 13:04 -12.44959 -38.58321 36054 ft 440 kts 213°
2026-04-24 13:04 -12.49929 -38.61977 36056 ft 440 kts 213°
2026-04-24 13:05 -12.54915 -38.65633 36249 ft 446 kts 213°
2026-04-24 13:05 -12.57442 -38.67487 36488 ft 447 kts 213°
2026-04-24 13:05 -12.59971 -38.69344 36744 ft 447 kts 213°
2026-04-24 13:05 -12.62497 -38.71200 37026 ft 446 kts 213°
2026-04-24 13:06 -12.65015 -38.73055 37323 ft 445 kts 213°
2026-04-24 13:06 -12.67527 -38.74907 37615 ft 444 kts 213°
2026-04-24 13:06 -12.70034 -38.76756 37908 ft 443 kts 213°
2026-04-24 13:06 -12.72535 -38.78602 38057 ft 443 kts 213°
2026-04-24 13:07 -12.75029 -38.80442 38074 ft 442 kts 213°
2026-04-24 13:07 -12.80016 -38.84115 38069 ft 441 kts 213°
2026-04-24 13:08 -12.84996 -38.87791 38072 ft 441 kts 213°
2026-04-24 13:08 -12.89943 -38.91456 38076 ft 441 kts 213°
2026-04-24 13:09 -12.97414 -38.96993 38083 ft 441 kts 213°
2026-04-24 13:09 -13.02397 -39.00676 38082 ft 441 kts 213°
2026-04-24 13:10 -13.07376 -39.04367 38090 ft 442 kts 213°
2026-04-24 13:10 -13.12347 -39.08059 38080 ft 442 kts 213°
2026-04-24 13:11 -13.17332 -39.11763 38083 ft 442 kts 213°
2026-04-24 13:11 -13.22320 -39.15472 38090 ft 442 kts 213°
2026-04-24 13:12 -13.27303 -39.19178 38094 ft 442 kts 213°
2026-04-24 13:12 -13.32285 -39.22887 38102 ft 442 kts 213°
2026-04-24 13:13 -13.37236 -39.26569 38092 ft 442 kts 213°
2026-04-24 13:13 -13.42224 -39.30274 38094 ft 442 kts 213°
2026-04-24 13:14 -13.47220 -39.33993 38108 ft 443 kts 214°
2026-04-24 13:14 -13.52199 -39.37720 38105 ft 442 kts 214°
2026-04-24 13:15 -13.57171 -39.41447 38114 ft 442 kts 214°
2026-04-24 13:15 -13.62144 -39.45173 38109 ft 442 kts 214°
2026-04-24 13:16 -13.67114 -39.48905 38119 ft 442 kts 214°
2026-04-24 13:16 -13.72050 -39.52614 38119 ft 442 kts 214°
2026-04-24 13:17 -13.77018 -39.56350 38124 ft 442 kts 214°
2026-04-24 13:17 -13.81991 -39.60082 38122 ft 442 kts 214°
2026-04-24 13:18 -13.86969 -39.63811 38117 ft 442 kts 214°
2026-04-24 13:18 -13.91934 -39.67545 38122 ft 442 kts 214°
2026-04-24 13:19 -13.96906 -39.71291 38125 ft 442 kts 214°
2026-04-24 13:19 -14.01875 -39.75031 38125 ft 442 kts 214°
2026-04-24 13:20 -14.06003 -39.78146 38124 ft 442 kts 214°
2026-04-24 13:20 -14.11777 -39.82494 38126 ft 442 kts 214°
2026-04-24 13:21 -14.16750 -39.86235 38134 ft 443 kts 214°
2026-04-24 13:21 -14.20916 -39.89377 38135 ft 443 kts 214°
2026-04-24 13:22 -14.25847 -39.93110 38142 ft 443 kts 214°
2026-04-24 13:22 -14.30819 -39.96866 38143 ft 443 kts 214°
2026-04-24 13:23 -14.35789 -40.00622 38138 ft 442 kts 214°
2026-04-24 13:23 -14.40750 -40.04374 38143 ft 442 kts 214°
2026-04-24 13:24 -14.45719 -40.08126 38149 ft 443 kts 214°
2026-04-24 13:24 -14.50686 -40.11881 38149 ft 443 kts 214°
2026-04-24 13:25 -14.55644 -40.15648 38158 ft 442 kts 214°
2026-04-24 13:25 -14.60601 -40.19413 38156 ft 442 kts 214°
2026-04-24 13:26 -14.65528 -40.23144 38162 ft 442 kts 214°
2026-04-24 13:26 -14.70490 -40.26901 38165 ft 442 kts 214°
2026-04-24 13:27 -14.75448 -40.30669 38167 ft 442 kts 214°
2026-04-24 13:27 -14.80411 -40.34446 38157 ft 442 kts 214°
2026-04-24 13:28 -14.85377 -40.38205 38164 ft 442 kts 214°
2026-04-24 13:28 -14.90333 -40.41973 38170 ft 442 kts 214°
2026-04-24 13:29 -14.95278 -40.45742 38169 ft 442 kts 214°
2026-04-24 13:29 -15.00236 -40.49518 38167 ft 442 kts 214°
2026-04-24 13:30 -15.05189 -40.53286 38171 ft 442 kts 214°
2026-04-24 13:30 -15.10116 -40.57042 38175 ft 442 kts 214°
2026-04-24 13:31 -15.15063 -40.60825 38176 ft 441 kts 214°
2026-04-24 13:31 -15.20007 -40.64604 38170 ft 441 kts 214°
2026-04-24 13:32 -15.24951 -40.68368 38170 ft 441 kts 214°
2026-04-24 13:32 -15.29859 -40.72112 38170 ft 441 kts 214°
2026-04-24 13:33 -15.34793 -40.75888 38176 ft 441 kts 214°
2026-04-24 13:33 -15.39731 -40.79667 38178 ft 441 kts 214°
2026-04-24 13:34 -15.44654 -40.83441 38176 ft 440 kts 214°
2026-04-24 13:34 -15.49582 -40.87213 38176 ft 440 kts 214°
2026-04-24 13:35 -15.54508 -40.90975 38183 ft 439 kts 214°
2026-04-24 13:35 -15.59421 -40.94744 38180 ft 439 kts 214°
2026-04-24 13:36 -15.64296 -40.98498 38178 ft 439 kts 214°
2026-04-24 13:36 -15.69213 -41.02269 38177 ft 439 kts 214°
2026-04-24 13:37 -15.74130 -41.06040 38183 ft 439 kts 214°
2026-04-24 13:37 -15.79033 -41.09813 38181 ft 438 kts 214°
2026-04-24 13:38 -15.83929 -41.13581 38180 ft 438 kts 214°
2026-04-24 13:38 -15.88821 -41.17343 38180 ft 437 kts 214°
2026-04-24 13:39 -15.93706 -41.21105 38176 ft 437 kts 215°
2026-04-24 13:39 -15.98579 -41.24861 38175 ft 436 kts 214°
2026-04-24 13:40 -16.03429 -41.28608 38170 ft 436 kts 214°
2026-04-24 13:40 -16.08301 -41.32364 38169 ft 436 kts 214°
2026-04-24 13:41 -16.13180 -41.36127 38166 ft 436 kts 215°
2026-04-24 13:41 -16.18057 -41.39888 38159 ft 436 kts 215°
2026-04-24 13:42 -16.22931 -41.43660 38165 ft 437 kts 215°
2026-04-24 13:42 -16.27802 -41.47435 38162 ft 436 kts 215°
2026-04-24 13:43 -16.32675 -41.51202 38162 ft 436 kts 215°
2026-04-24 13:43 -16.37515 -41.54956 38159 ft 436 kts 215°
2026-04-24 13:44 -16.42383 -41.58725 38166 ft 436 kts 215°
2026-04-24 13:44 -16.47247 -41.62490 38162 ft 435 kts 215°
2026-04-24 13:45 -16.52103 -41.66255 38160 ft 435 kts 215°
2026-04-24 13:45 -16.56959 -41.70028 38159 ft 435 kts 215°
2026-04-24 13:46 -16.61811 -41.73795 38156 ft 435 kts 215°
2026-04-24 13:46 -16.66631 -41.77544 38160 ft 434 kts 215°
2026-04-24 13:47 -16.71474 -41.81314 38157 ft 434 kts 215°
2026-04-24 13:47 -16.76323 -41.85087 38157 ft 434 kts 215°
2026-04-24 13:48 -16.81172 -41.88861 38158 ft 434 kts 215°
2026-04-24 13:48 -16.86014 -41.92638 38156 ft 434 kts 215°
2026-04-24 13:49 -16.90849 -41.96407 38154 ft 434 kts 215°
2026-04-24 13:49 -16.95650 -42.00154 38149 ft 434 kts 215°
2026-04-24 13:50 -17.00477 -42.03931 38148 ft 433 kts 215°
2026-04-24 13:50 -17.05303 -42.07707 38147 ft 433 kts 215°
2026-04-24 13:51 -17.10130 -42.11482 38151 ft 433 kts 215°
2026-04-24 13:51 -17.14953 -42.15248 38158 ft 433 kts 215°
2026-04-24 13:52 -17.19787 -42.19023 38162 ft 433 kts 215°
2026-04-24 13:52 -17.24610 -42.22805 38161 ft 433 kts 216°
2026-04-24 13:53 -17.29429 -42.26597 38161 ft 433 kts 216°
2026-04-24 13:53 -17.34218 -42.30360 38172 ft 433 kts 216°
2026-04-24 13:54 -17.39040 -42.34146 38171 ft 433 kts 215°
2026-04-24 13:54 -17.43855 -42.37928 38176 ft 433 kts 216°
2026-04-24 13:55 -17.48678 -42.41726 38182 ft 433 kts 216°
2026-04-24 13:55 -17.53499 -42.45519 38183 ft 433 kts 216°
2026-04-24 13:56 -17.58324 -42.49319 38184 ft 433 kts 216°
2026-04-24 13:56 -17.63143 -42.53113 38183 ft 433 kts 216°
2026-04-24 13:57 -17.67958 -42.56912 38188 ft 433 kts 216°
2026-04-24 13:57 -17.72744 -42.60688 38191 ft 433 kts 216°
2026-04-24 13:58 -17.77549 -42.64488 38190 ft 433 kts 216°
2026-04-24 13:58 -17.82353 -42.68290 38189 ft 432 kts 216°
2026-04-24 13:59 -17.87134 -42.72064 38187 ft 432 kts 216°
2026-04-24 13:59 -17.91941 -42.75860 38189 ft 432 kts 216°
2026-04-24 14:00 -17.96764 -42.79687 38189 ft 432 kts 216°
2026-04-24 14:00 -18.01525 -42.83468 38188 ft 432 kts 216°
2026-04-24 14:01 -18.06328 -42.87265 38183 ft 432 kts 216°
2026-04-24 14:01 -18.11128 -42.91075 38183 ft 432 kts 216°
2026-04-24 14:02 -18.15924 -42.94889 38193 ft 432 kts 216°
2026-04-24 14:02 -18.20716 -42.98694 38194 ft 431 kts 216°
2026-04-24 14:03 -18.25501 -43.02498 38195 ft 431 kts 216°
2026-04-24 14:03 -18.30284 -43.06301 38191 ft 431 kts 216°
2026-04-24 14:04 -18.35063 -43.10110 38191 ft 431 kts 216°
2026-04-24 14:04 -18.39809 -43.13902 38191 ft 430 kts 216°
2026-04-24 14:05 -18.44561 -43.17737 38188 ft 430 kts 216°
2026-04-24 14:05 -18.49300 -43.21586 38189 ft 430 kts 216°
2026-04-24 14:06 -18.54031 -43.25433 38196 ft 430 kts 217°
2026-04-24 14:06 -18.58767 -43.29276 38195 ft 429 kts 217°
2026-04-24 14:07 -18.63503 -43.33109 38194 ft 429 kts 217°
2026-04-24 14:07 -18.68259 -43.36904 38192 ft 429 kts 216°
2026-04-24 14:08 -18.73031 -43.40672 38192 ft 428 kts 216°
2026-04-24 14:08 -18.77796 -43.44456 38196 ft 428 kts 216°
2026-04-24 14:09 -18.82545 -43.48234 38196 ft 428 kts 216°
2026-04-24 14:09 -18.87269 -43.51988 38194 ft 428 kts 216°
2026-04-24 14:10 -18.92056 -43.55743 38192 ft 427 kts 215°
2026-04-24 14:10 -18.96879 -43.59421 38190 ft 427 kts 215°
2026-04-24 14:11 -19.01703 -43.63095 38186 ft 427 kts 215°
2026-04-24 14:12 -19.08920 -43.68637 38178 ft 427 kts 215°
2026-04-24 14:12 -19.13729 -43.72341 38178 ft 428 kts 215°
2026-04-24 14:13 -19.18544 -43.76048 38179 ft 427 kts 215°
2026-04-24 14:13 -19.23321 -43.79724 38181 ft 427 kts 215°
2026-04-24 14:14 -19.28130 -43.83434 38174 ft 427 kts 215°
2026-04-24 14:14 -19.35340 -43.88996 38195 ft 428 kts 216°
2026-04-24 14:15 -19.40148 -43.92711 38208 ft 428 kts 216°
2026-04-24 14:15 -19.44959 -43.96425 38227 ft 428 kts 216°
2026-04-24 14:16 -19.48964 -43.99520 38240 ft 428 kts 216°
2026-04-24 14:17 -19.56945 -44.05717 38257 ft 428 kts 216°
2026-04-24 14:17 -19.63362 -44.10641 38165 ft 427 kts 216°
2026-04-24 14:18 -19.68170 -44.14323 38169 ft 427 kts 216°
2026-04-24 14:18 -19.72979 -44.18025 38170 ft 426 kts 216°
2026-04-24 14:19 -19.77775 -44.21733 38175 ft 426 kts 216°
2026-04-24 14:19 -19.82570 -44.25440 38173 ft 426 kts 216°
2026-04-24 14:20 -19.87360 -44.29151 38180 ft 426 kts 216°
2026-04-24 14:20 -19.92152 -44.32867 38177 ft 426 kts 216°
2026-04-24 14:21 -19.96938 -44.36573 38183 ft 425 kts 217°
2026-04-24 14:21 -20.01685 -44.40250 38184 ft 425 kts 217°
2026-04-24 14:22 -20.06459 -44.43961 38177 ft 424 kts 217°
2026-04-24 14:23 -20.13609 -44.49527 38182 ft 424 kts 217°
2026-04-24 14:23 -20.18362 -44.53231 38183 ft 424 kts 217°
2026-04-24 14:24 -20.23116 -44.56929 38178 ft 423 kts 217°
2026-04-24 14:24 -20.27874 -44.60624 38181 ft 423 kts 217°
2026-04-24 14:25 -20.32591 -44.64293 38181 ft 422 kts 217°
2026-04-24 14:25 -20.37332 -44.67992 38178 ft 422 kts 217°
2026-04-24 14:26 -20.42070 -44.71688 38179 ft 422 kts 217°
2026-04-24 14:26 -20.46814 -44.75389 38178 ft 422 kts 217°
2026-04-24 14:27 -20.51546 -44.79091 38179 ft 422 kts 218°
2026-04-24 14:27 -20.56249 -44.82771 38181 ft 421 kts 218°
2026-04-24 14:28 -20.60972 -44.86460 38182 ft 421 kts 218°
2026-04-24 14:28 -20.65702 -44.90158 38176 ft 421 kts 217°
2026-04-24 14:29 -20.70432 -44.93852 38176 ft 420 kts 218°
2026-04-24 14:29 -20.75144 -44.97545 38176 ft 420 kts 218°
2026-04-24 14:30 -20.79843 -45.01241 38180 ft 419 kts 218°
2026-04-24 14:30 -20.84502 -45.04915 38177 ft 419 kts 218°
2026-04-24 14:31 -20.89187 -45.08609 38175 ft 418 kts 218°
2026-04-24 14:31 -20.93876 -45.12289 38166 ft 418 kts 218°
2026-04-24 14:32 -20.98558 -45.15978 38160 ft 418 kts 218°
2026-04-24 14:32 -21.03237 -45.19668 38160 ft 418 kts 218°
2026-04-24 14:33 -21.07916 -45.23358 38172 ft 418 kts 218°
2026-04-24 14:33 -21.12592 -45.27049 38163 ft 417 kts 218°
2026-04-24 14:34 -21.17231 -45.30724 38164 ft 417 kts 218°
2026-04-24 14:34 -21.21903 -45.34420 38169 ft 417 kts 218°
2026-04-24 14:35 -21.26578 -45.38118 38184 ft 418 kts 218°
2026-04-24 14:35 -21.31255 -45.41823 38183 ft 417 kts 218°
2026-04-24 14:36 -21.35924 -45.45525 38174 ft 417 kts 218°
2026-04-24 14:36 -21.40594 -45.49228 38180 ft 417 kts 219°
2026-04-24 14:37 -21.45265 -45.52941 38182 ft 417 kts 219°
2026-04-24 14:37 -21.49929 -45.56657 38181 ft 417 kts 219°
2026-04-24 14:38 -21.54612 -45.60348 38177 ft 418 kts 218°
2026-04-24 14:38 -21.59281 -45.63999 38187 ft 418 kts 218°
2026-04-24 14:39 -21.63986 -45.67676 38185 ft 418 kts 218°
2026-04-24 14:39 -21.68699 -45.71383 38177 ft 419 kts 218°
2026-04-24 14:40 -21.73405 -45.75090 38174 ft 419 kts 218°
2026-04-24 14:40 -21.78081 -45.78772 38178 ft 419 kts 218°
2026-04-24 14:41 -21.82787 -45.82489 38179 ft 420 kts 218°
2026-04-24 14:41 -21.87494 -45.86206 38181 ft 420 kts 218°
2026-04-24 14:42 -21.92210 -45.89926 38193 ft 419 kts 218°
2026-04-24 14:42 -21.96910 -45.93632 38193 ft 419 kts 218°
2026-04-24 14:43 -22.01605 -45.97348 38198 ft 418 kts 218°
2026-04-24 14:43 -22.06293 -46.01064 38204 ft 418 kts 218°
2026-04-24 14:44 -22.10972 -46.04776 38208 ft 417 kts 218°
2026-04-24 14:44 -22.15648 -46.08481 38199 ft 417 kts 218°
2026-04-24 14:45 -22.20323 -46.12191 38205 ft 417 kts 218°
2026-04-24 14:45 -22.24987 -46.15898 38214 ft 416 kts 218°
2026-04-24 14:46 -22.29604 -46.19573 38207 ft 414 kts 218°
2026-04-24 14:46 -22.34241 -46.23259 38196 ft 412 kts 218°
2026-04-24 14:47 -22.38860 -46.26908 38194 ft 411 kts 218°
2026-04-24 14:47 -22.43467 -46.30557 38192 ft 410 kts 218°
2026-04-24 14:48 -22.48073 -46.34205 38183 ft 410 kts 218°
2026-04-24 14:48 -22.52676 -46.37855 38187 ft 410 kts 218°
2026-04-24 14:49 -22.57263 -46.41479 38189 ft 407 kts 218°
2026-04-24 14:49 -22.61809 -46.45047 38188 ft 405 kts 218°
2026-04-24 14:50 -22.66373 -46.48631 38187 ft 405 kts 218°
2026-04-24 14:50 -22.70931 -46.52216 38179 ft 405 kts 218°
2026-04-24 14:51 -22.75498 -46.55811 38185 ft 405 kts 218°
2026-04-24 14:51 -22.80061 -46.59396 38179 ft 405 kts 218°
2026-04-24 14:52 -22.84620 -46.62971 38175 ft 404 kts 218°
2026-04-24 14:52 -22.89180 -46.66544 38183 ft 404 kts 218°
2026-04-24 14:53 -22.93742 -46.70096 38183 ft 404 kts 218°
2026-04-24 14:53 -22.98301 -46.73651 38181 ft 403 kts 218°
2026-04-24 14:54 -23.02831 -46.77185 38173 ft 404 kts 218°
2026-04-24 14:54 -23.07389 -46.80747 38175 ft 403 kts 218°
2026-04-24 14:55 -23.11178 -46.83708 38177 ft 403 kts 218°
2026-04-24 14:55 -23.16503 -46.87879 38184 ft 403 kts 218°
2026-04-24 14:56 -23.21066 -46.91438 38185 ft 403 kts 218°
2026-04-24 14:56 -23.25615 -46.94941 38186 ft 403 kts 218°
2026-04-24 14:57 -23.30188 -46.98456 38186 ft 403 kts 218°
2026-04-24 14:57 -23.34777 -47.01978 38187 ft 403 kts 218°
2026-04-24 14:58 -23.39361 -47.05497 38185 ft 403 kts 218°
2026-04-24 14:58 -23.43942 -47.09021 38185 ft 403 kts 218°
2026-04-24 14:59 -23.48526 -47.12545 38186 ft 403 kts 218°
2026-04-24 14:59 -23.53107 -47.16068 38188 ft 403 kts 218°
2026-04-24 15:00 -23.57698 -47.19566 38193 ft 402 kts 218°
2026-04-24 15:00 -23.62266 -47.23032 38193 ft 402 kts 218°
2026-04-24 15:01 -23.66854 -47.26519 38195 ft 402 kts 218°
2026-04-24 15:01 -23.71443 -47.30010 38191 ft 402 kts 218°
2026-04-24 15:02 -23.76026 -47.33500 38192 ft 402 kts 218°
2026-04-24 15:02 -23.80616 -47.36999 38189 ft 402 kts 218°
2026-04-24 15:03 -23.84426 -47.39897 38199 ft 401 kts 218°
2026-04-24 15:03 -23.89811 -47.43920 38196 ft 400 kts 218°
2026-04-24 15:04 -23.94409 -47.47358 38197 ft 400 kts 218°
2026-04-24 15:04 -23.99005 -47.50798 38196 ft 400 kts 218°
2026-04-24 15:05 -24.03569 -47.54218 38196 ft 400 kts 218°
2026-04-24 15:05 -24.08163 -47.57670 38191 ft 401 kts 218°
2026-04-24 15:06 -24.12764 -47.61127 38194 ft 400 kts 218°
2026-04-24 15:06 -24.17362 -47.64559 38191 ft 400 kts 218°
2026-04-24 15:07 -24.21965 -47.68005 38189 ft 400 kts 218°
2026-04-24 15:07 -24.26561 -47.71451 38190 ft 400 kts 218°
2026-04-24 15:08 -24.31157 -47.74899 38186 ft 400 kts 218°
2026-04-24 15:08 -24.35722 -47.78326 38181 ft 400 kts 218°
2026-04-24 15:09 -24.40317 -47.81773 38186 ft 400 kts 218°
2026-04-24 15:09 -24.44923 -47.85217 38186 ft 400 kts 218°
2026-04-24 15:10 -24.49522 -47.88641 38196 ft 399 kts 219°
2026-04-24 15:10 -24.54114 -47.92050 38196 ft 398 kts 219°
2026-04-24 15:11 -24.58703 -47.95459 38196 ft 398 kts 219°
2026-04-24 15:11 -24.63288 -47.98874 38194 ft 398 kts 219°
2026-04-24 15:12 -24.67101 -48.01718 38203 ft 398 kts 219°
2026-04-24 15:12 -24.74722 -48.07382 38203 ft 398 kts 219°
2026-04-24 15:13 -24.78564 -48.10232 38224 ft 396 kts 219°
2026-04-24 15:13 -24.83148 -48.13585 38225 ft 395 kts 219°
2026-04-24 15:14 -24.87724 -48.16944 38223 ft 395 kts 219°
2026-04-24 15:14 -24.92266 -48.20285 38224 ft 395 kts 219°
2026-04-24 15:15 -24.96857 -48.23646 38227 ft 396 kts 219°
2026-04-24 15:15 -25.01443 -48.27007 38227 ft 395 kts 219°
2026-04-24 15:16 -25.06022 -48.30365 38224 ft 395 kts 219°
2026-04-24 15:16 -25.10601 -48.33730 38232 ft 394 kts 219°
2026-04-24 15:17 -25.15179 -48.37063 38230 ft 394 kts 219°
2026-04-24 15:17 -25.19754 -48.40398 38230 ft 394 kts 219°
2026-04-24 15:18 -25.24297 -48.43712 38229 ft 394 kts 219°
2026-04-24 15:18 -25.28887 -48.47039 38230 ft 394 kts 219°
2026-04-24 15:19 -25.33473 -48.50358 38225 ft 394 kts 219°
2026-04-24 15:19 -25.38055 -48.53688 38226 ft 393 kts 219°
2026-04-24 15:20 -25.42626 -48.57005 38246 ft 393 kts 219°
2026-04-24 15:20 -25.47211 -48.60314 38242 ft 393 kts 219°
2026-04-24 15:21 -25.51794 -48.63622 38243 ft 393 kts 219°
2026-04-24 15:21 -25.56350 -48.66903 38249 ft 393 kts 219°
2026-04-24 15:22 -25.60936 -48.70186 38248 ft 392 kts 219°
2026-04-24 15:23 -25.67800 -48.75121 38250 ft 392 kts 219°
2026-04-24 15:23 -25.74640 -48.80030 38269 ft 391 kts 219°
2026-04-24 15:25 -25.86055 -48.88197 38259 ft 391 kts 219°
2026-04-24 15:26 -25.97447 -48.96398 38255 ft 391 kts 219°
2026-04-24 15:27 -26.11128 -49.06220 38266 ft 389 kts 219°
2026-04-24 15:29 -26.24800 -49.16011 38276 ft 389 kts 219°
2026-04-24 15:31 -26.40694 -49.27364 38299 ft 386 kts 220°
2026-04-24 15:33 -26.58791 -49.40292 38287 ft 387 kts 220°
2026-04-24 15:34 -26.70111 -49.48349 38319 ft 384 kts 220°